Location: Conflandey
(47.7287°N, 6.0456°E)
Time: 02:38:36
(UTC+00:00)

Cosmos 1953 - Pass Details

Date: 24 October 2021
Orbit: 537 x 557 km, 82.5° (Epoch: 28 November)

Event Time Altitude Azimuth Distance (km) Brightness Sun altitude
Rises 17:29:41 0° 200° (SSW) 2,729 6.2 -10.5°
Reaches altitude 10° 17:31:53 10° 205° (SSW) 1,839 5.4 -10.8°
Maximum altitude 17:35:51 53° 282° (WNW) 691 3.2 -11.5°
Drops below altitude 10° 17:39:52 10° 1° (N) 1,854 5.0 -12.2°
Sets 17:42:05 0° 6° (N) 2,753 5.8 -12.6°
